Location: Dortmund
(51.5019°N, 7.6520°E)
Time: 13:24:06
(UTC+01:00)

Envisat - Visible Passes

Search period start: 21 January 2018 00:00
Search period end: 31 January 2018 00:00
Orbit: 764 x 766 km, 98.2° (Epoch: 21 January)

Date Brightness Start Highest point End Pass type
(mag) Time Alt. Az. Time Alt. Az. Time Alt. Az.
21 Jan 3.3 19:10:37 41° E 19:11:15 43° ENE 19:16:03 10° N visible
21 Jan 4.6 20:50:48 32° W 20:50:48 32° W 20:54:58 10° NNW visible
22 Jan 4.0 18:33:12 20° E 18:34:50 24° ENE 18:38:51 10° N visible
22 Jan 3.3 20:13:23 64° WSW 20:13:28 64° WSW 20:18:32 10° NNW visible
22 Jan 6.0 21:53:34 10° W 21:53:34 10° W 21:53:41 10° W visible
23 Jan 4.6 17:56:05 10° E 17:58:36 14° NE 18:01:06 10° NNE visible
23 Jan 2.9 19:35:58 58° ESE 19:36:44 67° ENE 19:41:48 10° N visible
23 Jan 5.2 21:16:09 21° W 21:16:15 21° W 21:20:03 10° NW visible
24 Jan 5.9 07:36:23 10° NE 07:39:27 16° E 07:42:30 10° SE visible
24 Jan 3.5 18:58:32 28° E 19:00:11 36° ENE 19:04:49 10° N visible
24 Jan 4.2 20:38:43 39° WSW 20:39:11 39° W 20:43:58 10° NNW visible
25 Jan 4.2 18:21:06 14° E 18:23:49 20° ENE 18:27:30 10° N visible
25 Jan 3.0 20:01:17 57° S 20:02:19 78° WSW 20:07:26 10° NNW visible
25 Jan 5.8 21:41:28 12° W 21:42:13 13° W 21:44:25 10° WNW visible
26 Jan 4.8 17:45:54 10° ENE 17:47:39 12° NE 17:49:23 10° NNE visible
26 Jan 3.0 19:23:50 36° SE 19:25:39 56° ENE 19:30:37 10° N visible
26 Jan 5.0 21:04:02 23° WSW 21:04:59 25° W 21:09:11 10° NW visible
27 Jan 6.1 07:25:53 10° ENE 07:28:09 13° E 07:30:25 10° ESE visible
27 Jan 3.7 18:46:24 18° ESE 18:49:08 30° ENE 18:53:33 10° N visible
27 Jan 3.8 20:26:34 38° SW 20:28:00 48° W 20:32:56 10° NNW visible
28 Jan 4.4 18:09:35 10° E 18:12:50 17° NE 18:16:06 10° NNE visible
28 Jan 2.9 19:49:07 37° SSE 19:51:11 87° ENE 19:56:18 10° NNW visible
28 Jan 5.6 21:29:18 14° WSW 21:30:55 16° W 21:33:56 10° NW visible
29 Jan 3.2 19:11:39 22° SE 19:14:33 46° ENE 19:19:25 10° N visible
29 Jan 4.7 20:51:49 23° SW 20:53:46 30° W 20:58:14 10° NNW visible
30 Jan 6.5 07:16:15 10° ENE 07:16:50 10° E 07:17:26 10° E visible
30 Jan 4.0 18:34:11 11° ESE 18:38:07 26° ENE 18:42:15 10° N visible
30 Jan 3.5 20:14:21 29° S 20:16:49 59° W 20:21:51 10° NNW visible
